Miscellaneous Local Product
Issued by NWS North Platte, NE

Home | Current Version | Previous Version | Text Only | Print | Product List | Glossary On
Versions: 1 2 3 4 5 6 7 8 9 10 11 12 13 14 15 16 17 18 19 20 21 22 23 24 25 26 27 28 29 30 31 32 33 34 35 36 37 38 39 40 41 42 43 44 45 46 47 48 49 50
000
AXUS43 KLBF 280110
MISLBF


WESTERN AND NORTH CENTRAL NEBRASKA HOURLY WEATHER ROUNDUP
NATIONAL WEATHER SERVICE NORTH PLATTE NE
800 PM CDT THU APR 27 2017

NOTE: "FAIR" INDICATES FEW OR NO CLOUDS BELOW 12,000 FEET WITH NO
SIGNIFICANT WEATHER AND/OR OBSTRUCTIONS TO VISIBILITY.

NOTE: STATIONS NOT REPORTING VARIABLES SUCH AS SKY/WEATHER OR
PRESSURE ARE PROVIDED BY RAWS AND APRS NETWORKS AND ARE NOT UNDER
NATIONAL WEATHER SERVICE QUALITY CONTROL.

...OBSERVATIONS IN AND NEAR THE EASTERN PANHANDLE OF NEBRASKA...

CITY           SKY/WX    TMP DP  RH WIND       PRES   REMARKS
PINE RIDGE     RAIN      44  39  82 E8        29.64R
CHADRON        LGT RAIN  43  40  89 NE12      29.62R
ALLIANCE       LGT RAIN  43  41  93 SE7       29.60R
SIDNEY         RAIN      39  36  89 NW13      29.61R FOG     WCI  31
CRESCENT LAKE    N/A     43  42  95 NW7G14      N/A
$$

...OBSERVATIONS IN NORTHERN NEBRASKA AND FAR SOUTHERN SOUTH DAKOTA...

CITY           SKY/WX    TMP DP  RH WIND       PRES   REMARKS
WINNER         FAIR      49  33  54 E8        29.69R
VALENTINE      CLOUDY    52  30  43 E12       29.66R
THEDFORD       CLOUDY    49  37  63 E12       29.65S
AINSWORTH      CLOUDY    50  36  59 E9        29.67R
O`NEILL        CLEAR     50  35  54 SE5       29.70R
ORD            CLOUDY    48  40  73 E6        29.67R
BROKEN BOW     CLOUDY    49  35  58 E12       29.64S
VALENTINE NWR    N/A     51  34  52 E9          N/A
HALSEY           N/A     48  36  64 E7G14       N/A
BUTTE            N/A     49  33  53 CALM        N/A
CHAMBERS         N/A     51  32  49 NE3         N/A
EWING            N/A     50  37  62 E3          N/A
$$

...OBSERVATIONS IN SOUTHWEST NEBRASKA AND FAR NORTHEAST COLORADO...

CITY           SKY/WX    TMP DP  RH WIND       PRES   REMARKS
HOLYOKE        LGT RAIN  45  41  87 E16       29.56S
IMPERIAL       LGT RAIN  46  41  82 E16       29.56R
OGALLALA       CLOUDY    49  39  67 E12G18    29.58S
NORTH PLATTE   LGT RAIN  48  41  76 SE14      29.61R
MCCOOK         CLOUDY    49  41  74 E17       29.58R
LEXINGTON      CLOUDY    48  40  73 SE12G22   29.64R
STAPLETON        N/A     48  38  69 E3          N/A
GOTHENBURG       N/A     50  39  67 SE9         N/A
CALLAWAY         N/A     48  39  71 SE12        N/A
$$

...OBSERVATIONS IN CENTRAL LINCOLN COUNTY AREA...

CITY           SKY/WX    TMP DP  RH WIND       PRES   REMARKS
N.P. AIRPORT   LGT RAIN  48  41  76 SE14      29.61R
N.P. DOWNTOWN    N/A     49  41  73 E6G15       N/A
N.P. SOUTHEAST   N/A     48  40  74 SE9G16      N/A
N.P. HILLCREST   N/A     48  40  74 SE14G21     N/A
$$

...SOME OBSERVATIONS FROM AROUND THE REGION...

CITY           SKY/WX    TMP DP  RH WIND       PRES   REMARKS
DENVER         MOCLDY    46  36  68 E13       29.55R
LIMON          CLOUDY    39  38  96 N15       29.56R WCI  31
ASPEN          HVY SNOW  30  29  96 N7        29.72R VSB 1/4 WCI  23
LARAMIE        CLOUDY    36  25  64 W15G22    29.60R WCI  27
CASPER         CLOUDY    36  33  89 N9        29.60R WCI  29
CHEYENNE       CLOUDY    46  26  45 NW13G22   29.57R
SCOTTSBLUFF    CLOUDY    44  41  89 E13       29.55S
GRAND ISLAND   PTCLDY    53  37  54 SE9       29.68S
OMAHA          MOCLDY    57  32  38 NE3       29.72R
SIOUX FALLS    PTCLDY    46  32  58 N6        29.73R
PIERRE         CLEAR     46  32  58 NW6       29.70R
RAPID CITY     CLOUDY    45  32  60 NE10      29.67R
BISMARCK       CLEAR     50  24  36 NE9       29.75R
KANSAS CITY    LGT RAIN  53  45  74 SW6       29.77R
HILL CITY      CLOUDY    50  43  77 E20G28    29.58F
WICHITA        MOCLDY    56  44  64 SE17      29.61F
DODGE CITY     CLOUDY    56  43  61 SE28G33   29.46F
OKLAHOMA CITY  CLOUDY    63  48  58 SE13      29.57F
DALLAS         PTCLDY    73  51  46 SE15      29.57F
AMARILLO       PTCLDY    72  34  24 NW6       29.47R
$$




USA.gov is the U.S. government's official web portal to all federal, state and local government web resources and services.